Regional Weather Roundup
Issued by NWS Upton, NY

Current Version | Previous Version | Graphics & Text | Print | Product List | Glossary Off
Versions: 1 2 3 4 5 6 7 8 9 10 11 12 13 14 15 16 17 18 19 20 21 22 23 24 25 26 27 28 29 30 31 32 33 34 35 36 37 38 39 40 41 42 43 44 45 46 47 48 49 50

000
ASUS41 KOKX 051805
RWROKX

REGIONAL WEATHER ROUNDUP
NATIONAL WEATHER SERVICE NEW YORK NY
100 PM EST THU MAR 05 2015

NOTE: "FAIR" INDICATES FEW OR NO CLOUDS BELOW 12,000 FEET WITH NO
SIGNIFICANT WEATHER AND/OR OBSTRUCTIONS TO VISIBILITY.

NYZ071-072-176-178-NJZ106-104-051900-
NEW YORK CITY METRO AREA


CITY           SKY/WX    TMP DP  RH WIND       PRES   REMARKS
CENTRAL PARK   SNOW      20  17  88 NW8G18    30.19S VSB 1/4 WCI  10
LAGUARDIA APRT HVY SNOW  23  20  88 NW17G24   30.17R VSB 1/4 WCI   9
KENNEDY INTL   SNOW      26  21  81 NW14      30.18R VSB 1/4 WCI  14
NEWARK/LIBERTY SNOW      22  20  92 N15       30.19R VSB 1/2 WCI   9
BRNX BOT. GARD   N/A    N/A N/A N/A NW15      30.18R
TETERBORO      SNOW      21  18  86 N6        30.17S VSB 1/2 WCI  14
$$

NYZ177-179-078>081-051900-
LONG ISLAND NEW YORK

CITY           SKY/WX    TMP DP  RH WIND       PRES   REMARKS
FARMINGDALE    SNOW      24  20  84 NE12      30.16R VSB 1/2 WCI  13
ISLIP          SNOW      24  20  84 N13       30.13R VSB 1/2 WCI  12
SHIRLEY        HVY SNOW  23  20  88 N14       30.17R VSB 1/4 WCI  11
WESTHAMPTON    SNOW      24  20  84 N10       30.16R VSB 1/4 WCI  14
MONTAUK POINT    N/A     27  24  89 W13G21    30.13R WCI  16
$$

NYZ052-065-067-051900-
HUDSON VALLEY

CITY           SKY/WX    TMP DP  RH WIND       PRES   REMARKS
WHITE PLAINS   SNOW      21  17  84 N9        30.12R VSB 1/4 WCI  11
NEWBURGH       CLOUDY    25  10  54 N9        30.12F WCI  15
MONTGOMERY     CLOUDY    25   0  33 NW10      30.12F WCI  15
POUGHKEEPSIE   CLOUDY    25   4  40 N10       30.15R WCI  15
ALBANY         CLOUDY    21   5  50 NW16      30.16F WCI   7
$$

NJZ001-105-106-008-010-013-015-019>022-104-051900-
NEW JERSEY

CITY           SKY/WX    TMP DP  RH WIND       PRES   REMARKS
NEWARK/LIBERTY SNOW      22  20  92 N15       30.19R VSB 1/2 WCI   9
TETERBORO      SNOW      21  18  86 N6        30.17S VSB 1/2 WCI  14
CALDWELL       LGT SNOW  21  16  81 W5        30.17F VSB 3/4 WCI  15
MORRISTOWN     SNOW      21  19  93 CALM      30.18S VSB 1/2
SOMERVILLE     HVY SNOW  21  17  84 N6        30.17F VSB 1/4 WCI  13
SUSSEX         CLOUDY    23   1  38 N7        30.14S WCI  15
ANDOVER          N/A     22   4  46 N6        30.13F WCI  14
TRENTON        SNOW      23  19  85 N14G28    30.16S VSB 1/4 WCI  11
MILLVILLE      SNOW      30 N/A N/A N13G23    30.12F VSB 1/2 WCI  20
ATLANTIC CITY  SNOW      29  27  92 N15       30.11F VSB 1/2 WCI  18
WRIGHTSTOWN    LGT SNOW  26  24  93 N14       30.11F VSB 1   WCI  15
TOMS RIVER     CLOUDY    28  25  86 N12       30.13F VSB 3/4 WCI  18
BELMAR         CLOUDY    27  19  74 N12       30.13F VSB 3/4 WCI  16
$$

PAZ047>061-062-071-051900-
EASTERN PENNSYLVANIA

CITY           SKY/WX    TMP DP  RH WIND       PRES   REMARKS
PHILADELPHIA   LGT SNOW  27  23  85 N12G25    30.17F VSB 1   WCI  17
ALLENTOWN      LGT SNOW  19  14  79 CALM      30.18F
SCRANTON       CLOUDY    18   1  47 N14       30.14F WCI   4
$$

CTZ002-004>006-009-010-012-RIZ004-006-007-MAZ004-011-015-051900-
SOUTHERN NEW ENGLAND
 IN CT

CITY           SKY/WX    TMP DP  RH WIND       PRES   REMARKS
BRADLEY INTL   CLOUDY    26   5  40 NW17      30.11R WCI  13
HARTFORD       CLOUDY    26   3  37 NW7       30.13R WCI  18
DANBURY        CLOUDY    23   2  40 N9        30.13R WCI  13
WTRBRY/OXFORD  CLOUDY    21  -2  35 N12       30.10R WCI   9
BRIDGEPORT     SNOW      22  18  85 NW8       30.16R VSB 1/2 WCI  12
MERIDEN        CLOUDY    25   2  37 N10       30.13R WCI  15
NEW HAVEN      LGT SNOW  23  17  78 NW9       30.15R WCI  13
CHESTER        LGT SNOW  23  19  86 NW5       30.11R WCI  17
GROTON         SNOW      23  21  92 NW12      30.12R VSB 1/4 WCI  12
WILLIMANTIC    FLURRIES  25  18  74 SW5       30.11R WCI  19

 IN RI

CITY           SKY/WX    TMP DP  RH WIND       PRES   REMARKS
PROVIDENCE     LGT SNOW  25  21  85 N8        30.10R VSB 3/4 WCI  16
BLOCK ISLAND   CLOUDY    27  21  80 NW10G17   30.08R VSB 1/2 WCI  17
WESTERLY       SNOW      25  22  88 NW12      30.12R VSB 1/4 WCI  14

 IN MA

CITY           SKY/WX    TMP DP  RH WIND       PRES   REMARKS
BOSTON         CLOUDY    29   5  36 NW13      30.08R WCI  19
WORCESTER      CLOUDY    24   0  35 NW14      30.02R WCI  12
WESTFIELD      CLOUDY    25   5  42 NW14      30.10R WCI  13
PROVINCETOWN   CLOUDY    27  21  80 N12       30.06S WCI  16
NANTUCKET      LGT SNOW  29  25  85 N16       30.03S FOG     WCI  17
$$

ANZ330-335-338-340-345-350-353-355-051900-
COASTAL MARINE OBSERVATIONS


STATION/POSITION TIME  SKY/WX   TEMP    WIND        PRES    VSBY  WAVE
                                AIR SEA DIR/SP/G                  HT/PER
                 (UTC)          (F)     (DEG/KT/KT) (MB)    (MI)  (FT/S)
NY HARB ENTRANCE 1800            27 38  350/ 10/ 12 1021.2          3/ 8
4S FIRE IS       1800               32                N/A           3/ 9
20S FIRE ISLAND  1700               36              1020.0          5/ 4
23SW MTP         1800                                 N/A           3/ 9
HUDSON CANYON    NOT AVBL
EXECUTION ROCKS  NOT AVBL
WESTERN LI SOUND NOT AVBL
CENTRAL LI SOUND NOT AVBL
EASTERN LI SOUND NOT AVBL
ROBBINS REEF     1800            22     350/ 17/ 21 1021.0
$$


>>>>>>>>>>>>>>>>>>>>>>>>>>>> KEY <<<<<<<<<<<<<<<<<<<<<<<<<<<
>                                                          <
>     SKY/WX - SKY CONDITION/PRESENT WEATHER               <
>     TMP    - TEMPERATURE IN FAHRENHEIT                   <
>     DP     - DEWPOINT IN FAHRENHEIT                      <
>     RH     - RELATIVE HUMIDITY IN PERCENT                <
>     WIND   - DIRECTION AND SPEED IN MPH                  <
>     PRES   - MEAN SEA LEVEL PRESSURE IN INCHES OF HG     <
>     WCI    - WIND CHILL INDEX                            <
>     VSB    - VISIBILITY IN MILES                         <
>     HX     - HEAT INDEX                                  <
>     TC     - TEMPERATURE IN CELSIUS                      <
>     VRB    - VARIABLE WIND DIRECTION                     <
>                                                          <
>>>>>>>>>>>>>>>>>>>>>>>>>>>> KEY <<<<<<<<<<<<<<<<<<<<<<<<<<<




USA.gov is the U.S. government's official web portal to all federal, state and local government web resources and services.